JBU67BH KPDX-KLAX

Flight info

Callsign JBU67BH
Flight time 2h 2m
Altitude 37000
Route HRMNS6 HYJOE JAGWA BURGL IRNMN2
Aircraft A320/M-SDE3FGHIRWY/LB1

Departure

Time 2026-04-20 16:32
Airport Portland International Airport (KPDX)

Arrival

Time 2026-04-20 18:34
Airport Los Angeles International Airport (KLAX)
Time Latitude Longitude Altitude Speed Heading
2026-04-20 16:03 45.59038 -122.59901 29 ft 0 kts 209°
2026-04-20 16:22 45.59048 -122.59893 29 ft 4 kts 211°
2026-04-20 16:22 45.59070 -122.59872 29 ft 4 kts 219°
2026-04-20 16:22 45.59089 -122.59845 29 ft 4 kts 241°
2026-04-20 16:23 45.59094 -122.59814 29 ft 2 kts 296°
2026-04-20 16:23 45.59091 -122.59806 29 ft 0 kts 298°
2026-04-20 16:26 45.59092 -122.59810 29 ft 1 kts 298°
2026-04-20 16:26 45.59101 -122.59833 29 ft 4 kts 298°
2026-04-20 16:26 45.59120 -122.59883 29 ft 8 kts 298°
2026-04-20 16:27 45.59138 -122.59972 28 ft 11 kts 276°
2026-04-20 16:27 45.59109 -122.60076 28 ft 13 kts 224°
2026-04-20 16:27 45.59027 -122.60150 28 ft 15 kts 208°
2026-04-20 16:27 45.58930 -122.60223 28 ft 15 kts 201°
2026-04-20 16:28 45.58857 -122.60132 29 ft 16 kts 118°
2026-04-20 16:28 45.58798 -122.59980 29 ft 19 kts 118°
2026-04-20 16:28 45.58733 -122.59809 29 ft 21 kts 118°
2026-04-20 16:28 45.58658 -122.59622 29 ft 23 kts 119°
2026-04-20 16:29 45.58579 -122.59416 28 ft 25 kts 119°
2026-04-20 16:29 45.58492 -122.59196 28 ft 26 kts 120°
2026-04-20 16:29 45.58416 -122.59001 28 ft 23 kts 119°
2026-04-20 16:29 45.58334 -122.58794 29 ft 25 kts 119°
2026-04-20 16:30 45.58250 -122.58578 29 ft 23 kts 119°
2026-04-20 16:30 45.58181 -122.58403 28 ft 15 kts 122°
2026-04-20 16:30 45.58154 -122.58368 28 ft 0 kts 151°
2026-04-20 16:31 45.58149 -122.58364 28 ft 2 kts 151°
2026-04-20 16:31 45.58116 -122.58364 28 ft 9 kts 196°
2026-04-20 16:31 45.58077 -122.58435 28 ft 10 kts 270°
2026-04-20 16:31 45.58153 -122.58645 31 ft 54 kts 299°
2026-04-20 16:32 45.58449 -122.59402 28 ft 117 kts 299°
2026-04-20 16:32 45.58929 -122.60637 36 ft 165 kts 299°
2026-04-20 16:32 45.59511 -122.62125 459 ft 177 kts 299°
2026-04-20 16:32 45.60134 -122.63711 1047 ft 188 kts 299°
2026-04-20 16:33 45.60795 -122.65367 1590 ft 198 kts 301°
2026-04-20 16:33 45.61563 -122.67146 1846 ft 223 kts 302°
2026-04-20 16:33 45.62425 -122.69131 2205 ft 247 kts 302°
2026-04-20 16:33 45.63358 -122.71323 2675 ft 268 kts 302°
2026-04-20 16:34 45.64335 -122.73659 3391 ft 278 kts 301°
2026-04-20 16:34 45.65329 -122.76066 4212 ft 283 kts 299°
2026-04-20 16:34 45.66280 -122.78554 5078 ft 286 kts 290°
2026-04-20 16:34 45.66798 -122.81290 5971 ft 284 kts 273°
2026-04-20 16:35 45.66767 -122.84090 6829 ft 282 kts 257°
2026-04-20 16:35 45.66265 -122.86788 7639 ft 283 kts 249°
2026-04-20 16:35 45.65503 -122.89378 8415 ft 282 kts 231°
2026-04-20 16:35 45.64118 -122.91304 9187 ft 278 kts 207°
2026-04-20 16:36 45.62324 -122.92211 9957 ft 274 kts 183°
2026-04-20 16:36 45.60448 -122.92004 10520 ft 282 kts 165°
2026-04-20 16:36 45.58482 -122.91220 10711 ft 304 kts 163°
2026-04-20 16:36 45.56360 -122.90316 11006 ft 321 kts 162°
2026-04-20 16:37 45.54257 -122.89303 11627 ft 326 kts 156°
2026-04-20 16:37 45.52266 -122.87707 12343 ft 329 kts 149°
2026-04-20 16:37 45.50312 -122.85997 13083 ft 330 kts 149°
2026-04-20 16:37 45.48342 -122.84289 13806 ft 332 kts 150°
2026-04-20 16:38 45.46358 -122.82591 14452 ft 334 kts 150°
2026-04-20 16:38 45.44353 -122.80884 15072 ft 336 kts 150°
2026-04-20 16:38 45.42342 -122.79175 15676 ft 339 kts 150°
2026-04-20 16:38 45.40308 -122.77446 16267 ft 341 kts 151°
2026-04-20 16:39 45.38259 -122.75702 16866 ft 344 kts 151°
2026-04-20 16:39 45.36196 -122.73942 17477 ft 347 kts 151°
2026-04-20 16:39 45.34119 -122.72167 18065 ft 350 kts 151°
2026-04-20 16:39 45.32022 -122.70377 18629 ft 353 kts 151°
2026-04-20 16:40 45.29901 -122.68573 19182 ft 356 kts 151°
2026-04-20 16:40 45.27787 -122.66781 19732 ft 359 kts 152°
2026-04-20 16:40 45.25632 -122.64951 20299 ft 362 kts 152°
2026-04-20 16:40 45.23458 -122.63104 20842 ft 365 kts 152°
2026-04-20 16:41 45.21264 -122.61236 21363 ft 368 kts 152°
2026-04-20 16:41 45.19058 -122.59360 21844 ft 371 kts 152°
2026-04-20 16:41 45.16833 -122.57476 22322 ft 375 kts 152°
2026-04-20 16:41 45.14581 -122.55575 22796 ft 378 kts 152°
2026-04-20 16:42 45.12312 -122.53662 23266 ft 381 kts 152°
2026-04-20 16:42 45.10030 -122.51737 23662 ft 383 kts 152°
2026-04-20 16:42 45.07731 -122.49799 24062 ft 385 kts 152°
2026-04-20 16:42 45.05427 -122.47857 24442 ft 387 kts 152°
2026-04-20 16:43 45.03098 -122.45898 24792 ft 389 kts 152°
2026-04-20 16:43 45.00776 -122.43943 25140 ft 392 kts 152°
2026-04-20 16:43 44.98425 -122.41965 25489 ft 394 kts 152°
2026-04-20 16:43 44.96059 -122.39985 25852 ft 396 kts 153°
2026-04-20 16:44 44.93559 -122.38374 26206 ft 396 kts 162°
2026-04-20 16:44 44.90938 -122.37137 26553 ft 398 kts 163°
2026-04-20 16:44 44.88294 -122.35908 26909 ft 401 kts 163°
2026-04-20 16:44 44.85630 -122.34671 27256 ft 403 kts 163°
2026-04-20 16:45 44.82987 -122.33443 27601 ft 406 kts 163°
2026-04-20 16:45 44.80282 -122.32186 27922 ft 409 kts 163°
2026-04-20 16:45 44.77570 -122.30927 28238 ft 411 kts 163°
2026-04-20 16:45 44.74844 -122.29664 28569 ft 413 kts 163°
2026-04-20 16:46 44.72108 -122.28394 29013 ft 413 kts 164°
2026-04-20 16:46 44.69381 -122.27129 29501 ft 412 kts 164°
2026-04-20 16:46 44.66698 -122.25886 29965 ft 412 kts 164°
2026-04-20 16:46 44.63975 -122.24620 30329 ft 411 kts 165°
2026-04-20 16:47 44.61273 -122.23364 30749 ft 408 kts 165°
2026-04-20 16:47 44.58585 -122.22114 31202 ft 406 kts 166°
2026-04-20 16:47 44.55906 -122.20878 31663 ft 403 kts 166°
2026-04-20 16:47 44.53282 -122.19672 32035 ft 402 kts 167°
2026-04-20 16:48 44.50628 -122.18454 32459 ft 401 kts 168°
2026-04-20 16:48 44.47976 -122.17235 32855 ft 400 kts 168°
2026-04-20 16:48 44.45373 -122.16037 33281 ft 398 kts 169°
2026-04-20 16:48 44.42779 -122.14840 33740 ft 397 kts 169°
2026-04-20 16:49 44.40160 -122.13639 34150 ft 395 kts 169°
2026-04-20 16:49 44.37547 -122.12442 34465 ft 394 kts 169°
2026-04-20 16:49 44.34940 -122.11250 34799 ft 393 kts 169°
2026-04-20 16:49 44.32344 -122.10060 35125 ft 392 kts 170°
2026-04-20 16:50 44.29757 -122.08877 35452 ft 391 kts 170°
2026-04-20 16:50 44.27171 -122.07697 35731 ft 391 kts 170°
2026-04-20 16:50 44.24586 -122.06514 36009 ft 390 kts 170°
2026-04-20 16:50 44.22011 -122.05337 36242 ft 389 kts 170°
2026-04-20 16:51 44.19465 -122.04179 36472 ft 389 kts 170°
2026-04-20 16:51 44.16890 -122.03009 36737 ft 389 kts 170°
2026-04-20 16:51 44.14307 -122.01838 36855 ft 391 kts 170°
2026-04-20 16:51 44.11702 -122.00659 36876 ft 396 kts 170°
2026-04-20 16:52 44.06443 -121.98275 36863 ft 396 kts 170°
2026-04-20 16:52 44.01209 -121.95900 36874 ft 395 kts 170°
2026-04-20 16:53 43.95988 -121.93527 36852 ft 395 kts 170°
2026-04-20 16:53 43.90790 -121.91189 36888 ft 397 kts 171°
2026-04-20 16:54 43.85523 -121.88896 36888 ft 392 kts 175°
2026-04-20 16:54 43.80192 -121.87688 36894 ft 388 kts 178°
2026-04-20 16:55 43.74860 -121.86409 36878 ft 389 kts 178°
2026-04-20 16:55 43.69518 -121.85057 36877 ft 390 kts 177°
2026-04-20 16:56 43.64166 -121.83718 36880 ft 391 kts 178°
2026-04-20 16:56 43.58813 -121.82419 36911 ft 391 kts 178°
2026-04-20 16:57 43.53459 -121.81122 36888 ft 391 kts 178°
2026-04-20 16:57 43.48139 -121.79815 36898 ft 391 kts 178°
2026-04-20 16:58 43.42788 -121.78508 36903 ft 390 kts 178°
2026-04-20 16:58 43.37435 -121.77215 36904 ft 390 kts 178°
2026-04-20 16:59 43.32084 -121.75923 36873 ft 390 kts 178°
2026-04-20 16:59 43.26772 -121.74642 36883 ft 390 kts 178°
2026-04-20 17:00 43.18739 -121.72702 36909 ft 390 kts 178°
2026-04-20 17:01 43.13398 -121.71413 36891 ft 390 kts 178°
2026-04-20 17:01 43.08058 -121.70132 36891 ft 389 kts 178°
2026-04-20 17:02 43.02721 -121.68851 36889 ft 389 kts 178°
2026-04-20 17:02 42.97375 -121.67581 36865 ft 389 kts 178°
2026-04-20 17:03 42.92942 -121.66517 36878 ft 389 kts 178°
2026-04-20 17:03 42.86743 -121.65030 36885 ft 389 kts 178°
2026-04-20 17:04 42.82276 -121.63956 36878 ft 389 kts 178°
2026-04-20 17:04 42.76972 -121.62699 36881 ft 389 kts 178°
2026-04-20 17:05 42.71637 -121.61440 36882 ft 389 kts 178°
2026-04-20 17:05 42.66302 -121.60169 36881 ft 389 kts 178°
2026-04-20 17:06 42.60962 -121.58906 36878 ft 389 kts 178°
2026-04-20 17:06 42.55620 -121.57649 36852 ft 390 kts 178°
2026-04-20 17:07 42.50257 -121.56388 36849 ft 392 kts 178°
2026-04-20 17:07 42.44916 -121.55132 36857 ft 392 kts 178°
2026-04-20 17:08 42.39533 -121.53867 36835 ft 393 kts 177°
2026-04-20 17:08 42.34137 -121.52600 36875 ft 393 kts 177°
2026-04-20 17:09 42.28760 -121.51336 36884 ft 392 kts 177°
2026-04-20 17:09 42.23382 -121.50078 36884 ft 391 kts 177°
2026-04-20 17:10 42.18013 -121.48822 36933 ft 391 kts 177°
2026-04-20 17:10 42.12654 -121.47583 36927 ft 390 kts 177°
2026-04-20 17:11 42.07333 -121.46351 36926 ft 390 kts 177°
2026-04-20 17:11 42.01965 -121.45107 36889 ft 390 kts 177°
2026-04-20 17:12 41.96611 -121.43858 36886 ft 391 kts 177°
2026-04-20 17:12 41.91249 -121.42615 36906 ft 390 kts 177°
2026-04-20 17:13 41.85906 -121.41380 36907 ft 390 kts 177°
2026-04-20 17:13 41.80560 -121.40148 36856 ft 390 kts 177°
2026-04-20 17:14 41.75246 -121.38918 36878 ft 390 kts 177°
2026-04-20 17:14 41.69887 -121.37680 36898 ft 391 kts 177°
2026-04-20 17:15 41.64516 -121.36446 36883 ft 392 kts 177°
2026-04-20 17:15 41.59139 -121.35222 36888 ft 393 kts 177°
2026-04-20 17:16 41.53737 -121.33992 36904 ft 394 kts 177°
2026-04-20 17:16 41.48320 -121.32757 36912 ft 395 kts 177°
2026-04-20 17:17 41.42880 -121.31521 36893 ft 396 kts 176°
2026-04-20 17:17 41.37442 -121.30286 36921 ft 397 kts 176°
2026-04-20 17:18 41.31997 -121.29047 36921 ft 397 kts 176°
2026-04-20 17:18 41.26586 -121.27818 36901 ft 397 kts 176°
2026-04-20 17:19 41.21134 -121.26576 36905 ft 398 kts 176°
2026-04-20 17:19 41.15678 -121.25353 36908 ft 398 kts 176°
2026-04-20 17:20 41.10219 -121.24124 36890 ft 398 kts 176°
2026-04-20 17:20 41.04759 -121.22890 36897 ft 398 kts 176°
2026-04-20 17:21 40.99286 -121.21664 36909 ft 399 kts 176°
2026-04-20 17:21 40.93819 -121.20439 36924 ft 399 kts 176°
2026-04-20 17:22 40.88342 -121.19214 36915 ft 399 kts 176°
2026-04-20 17:22 40.82866 -121.17979 36928 ft 399 kts 176°
2026-04-20 17:23 40.77425 -121.16759 36962 ft 399 kts 176°
2026-04-20 17:23 40.71948 -121.15554 36909 ft 399 kts 176°
2026-04-20 17:24 40.66470 -121.14327 36921 ft 399 kts 176°
2026-04-20 17:24 40.60982 -121.13099 36931 ft 400 kts 176°
2026-04-20 17:25 40.55489 -121.11884 36930 ft 400 kts 176°
2026-04-20 17:25 40.49978 -121.10663 36933 ft 401 kts 176°
2026-04-20 17:26 40.44501 -121.09459 36942 ft 402 kts 176°
2026-04-20 17:26 40.38980 -121.08245 36955 ft 402 kts 176°
2026-04-20 17:27 40.33452 -121.07025 36949 ft 402 kts 176°
2026-04-20 17:27 40.27923 -121.05808 36951 ft 402 kts 176°
2026-04-20 17:28 40.22399 -121.04599 36958 ft 402 kts 176°
2026-04-20 17:28 40.16879 -121.03387 36956 ft 402 kts 175°
2026-04-20 17:29 40.11357 -121.02177 36954 ft 402 kts 175°
2026-04-20 17:29 40.05870 -121.00981 36961 ft 402 kts 175°
2026-04-20 17:30 40.00344 -120.99766 36938 ft 402 kts 175°
2026-04-20 17:30 39.94822 -120.98564 36948 ft 402 kts 175°
2026-04-20 17:31 39.89294 -120.97368 36955 ft 403 kts 175°
2026-04-20 17:31 39.83759 -120.96167 36930 ft 403 kts 175°
2026-04-20 17:32 39.78217 -120.94965 36927 ft 404 kts 175°
2026-04-20 17:32 39.72702 -120.93766 36938 ft 405 kts 175°
2026-04-20 17:33 39.67141 -120.92571 36949 ft 405 kts 175°
2026-04-20 17:33 39.61577 -120.91369 36937 ft 406 kts 175°
2026-04-20 17:34 39.56004 -120.90164 36941 ft 406 kts 175°
2026-04-20 17:34 39.50424 -120.88960 36947 ft 406 kts 175°
2026-04-20 17:35 39.44838 -120.87771 36940 ft 407 kts 175°
2026-04-20 17:35 39.39248 -120.86575 36949 ft 408 kts 175°
2026-04-20 17:35 39.36439 -120.85973 37063 ft 408 kts 175°
2026-04-20 17:36 39.33641 -120.85371 37071 ft 408 kts 175°
2026-04-20 17:36 39.28037 -120.84171 37072 ft 408 kts 175°
2026-04-20 17:37 39.22422 -120.82971 37082 ft 409 kts 175°
2026-04-20 17:37 39.16828 -120.81777 37074 ft 409 kts 175°
2026-04-20 17:38 39.11204 -120.80585 37057 ft 410 kts 175°
2026-04-20 17:38 39.05568 -120.79397 37036 ft 410 kts 175°
2026-04-20 17:39 38.99934 -120.78195 37008 ft 411 kts 175°
2026-04-20 17:39 38.94291 -120.77001 37025 ft 410 kts 175°
2026-04-20 17:40 38.88656 -120.75814 37034 ft 411 kts 175°
2026-04-20 17:40 38.83012 -120.74625 37057 ft 411 kts 175°
2026-04-20 17:41 38.77371 -120.73439 37066 ft 411 kts 175°
2026-04-20 17:41 38.71727 -120.72247 37050 ft 411 kts 175°
2026-04-20 17:42 38.66073 -120.71057 36982 ft 412 kts 175°
2026-04-20 17:42 38.60412 -120.69881 36998 ft 412 kts 175°
2026-04-20 17:43 38.54793 -120.68699 37011 ft 412 kts 174°
2026-04-20 17:43 38.49124 -120.67504 37027 ft 412 kts 175°
2026-04-20 17:44 38.43461 -120.66329 37037 ft 412 kts 175°
2026-04-20 17:44 38.37800 -120.65164 37033 ft 412 kts 175°
2026-04-20 17:45 38.32136 -120.63982 37021 ft 412 kts 174°
2026-04-20 17:45 38.26463 -120.62803 37029 ft 413 kts 174°
2026-04-20 17:46 38.20798 -120.61632 37039 ft 413 kts 174°
2026-04-20 17:46 38.15122 -120.60455 37025 ft 413 kts 175°
2026-04-20 17:47 38.09482 -120.59292 37035 ft 413 kts 174°
2026-04-20 17:47 38.03802 -120.58119 37030 ft 413 kts 174°
2026-04-20 17:48 37.98121 -120.56950 37024 ft 413 kts 174°
2026-04-20 17:48 37.92441 -120.55781 36996 ft 413 kts 174°
2026-04-20 17:49 37.86756 -120.54617 36995 ft 413 kts 175°
2026-04-20 17:49 37.81075 -120.53454 36997 ft 413 kts 174°
2026-04-20 17:50 37.75426 -120.52292 36988 ft 413 kts 174°
2026-04-20 17:50 37.69741 -120.51134 36999 ft 413 kts 174°
2026-04-20 17:51 37.65023 -120.50172 37002 ft 413 kts 174°
2026-04-20 17:51 37.59346 -120.49013 37003 ft 413 kts 174°
2026-04-20 17:52 37.53671 -120.47856 37002 ft 413 kts 174°
2026-04-20 17:52 37.47999 -120.46706 37004 ft 413 kts 174°
2026-04-20 17:53 37.42321 -120.45557 37006 ft 413 kts 174°
2026-04-20 17:53 37.36650 -120.44417 37029 ft 413 kts 174°
2026-04-20 17:54 37.30995 -120.43279 37032 ft 413 kts 174°
2026-04-20 17:54 37.25314 -120.42124 37001 ft 414 kts 174°
2026-04-20 17:55 37.19626 -120.40977 36996 ft 414 kts 174°
2026-04-20 17:55 37.13931 -120.39832 36979 ft 414 kts 174°
2026-04-20 17:56 37.08259 -120.38682 36988 ft 415 kts 174°
2026-04-20 17:56 37.02538 -120.37536 36992 ft 416 kts 174°
2026-04-20 17:57 36.96810 -120.36394 36998 ft 416 kts 174°
2026-04-20 17:57 36.91081 -120.35253 37012 ft 417 kts 174°
2026-04-20 17:58 36.85359 -120.34107 37018 ft 417 kts 174°
2026-04-20 17:58 36.79622 -120.32957 37021 ft 417 kts 174°
2026-04-20 17:59 36.73891 -120.31815 37016 ft 417 kts 174°
2026-04-20 17:59 36.68197 -120.30693 37019 ft 417 kts 174°
2026-04-20 18:00 36.62457 -120.29564 37024 ft 417 kts 174°
2026-04-20 18:00 36.56717 -120.28420 37026 ft 417 kts 174°
2026-04-20 18:01 36.51030 -120.27283 37030 ft 417 kts 174°
2026-04-20 18:01 36.45300 -120.26149 37032 ft 417 kts 174°
2026-04-20 18:02 36.39572 -120.25023 37033 ft 417 kts 174°
2026-04-20 18:02 36.33841 -120.23894 37032 ft 417 kts 173°
2026-04-20 18:03 36.28120 -120.22763 37040 ft 416 kts 173°
2026-04-20 18:03 36.18140 -120.20812 37032 ft 417 kts 173°
2026-04-20 18:04 36.06678 -120.18555 37053 ft 417 kts 173°
2026-04-20 18:04 35.95197 -120.16323 37047 ft 418 kts 173°
2026-04-20 18:05 35.77942 -120.12958 37059 ft 418 kts 173°
2026-04-20 18:05 35.66522 -120.10145 37044 ft 422 kts 159°
2026-04-20 18:06 35.61570 -120.06357 37064 ft 427 kts 147°
2026-04-20 18:06 35.56731 -120.02082 37045 ft 428 kts 148°
2026-04-20 18:06 35.47009 -119.93622 37046 ft 429 kts 148°
2026-04-20 18:07 35.37275 -119.85108 37042 ft 429 kts 147°
2026-04-20 18:07 35.27486 -119.76597 37027 ft 429 kts 147°
2026-04-20 18:08 35.17797 -119.68186 37018 ft 429 kts 148°
2026-04-20 18:08 35.12694 -119.63770 36000 ft 428 kts 148°
2026-04-20 18:08 35.09854 -119.61321 35209 ft 430 kts 148°
2026-04-20 18:09 35.07403 -119.59209 34528 ft 432 kts 148°
2026-04-20 18:09 35.04940 -119.57082 33807 ft 434 kts 148°
2026-04-20 18:09 35.02451 -119.54932 32520 ft 445 kts 148°
2026-04-20 18:09 34.99891 -119.52723 31338 ft 454 kts 148°
2026-04-20 18:10 34.97353 -119.50531 30846 ft 447 kts 148°
2026-04-20 18:10 34.94826 -119.48347 30279 ft 443 kts 148°
2026-04-20 18:10 34.92311 -119.46179 29633 ft 440 kts 148°
2026-04-20 18:10 34.89826 -119.44043 29062 ft 434 kts 149°
2026-04-20 18:11 34.87369 -119.41932 28480 ft 429 kts 149°
2026-04-20 18:11 34.84948 -119.39855 27915 ft 424 kts 149°
2026-04-20 18:11 34.82569 -119.37818 27359 ft 420 kts 149°
2026-04-20 18:11 34.80196 -119.35785 26802 ft 416 kts 149°
2026-04-20 18:12 34.77840 -119.33771 26238 ft 412 kts 149°
2026-04-20 18:12 34.75499 -119.31770 25705 ft 409 kts 149°
2026-04-20 18:12 34.73175 -119.29786 25169 ft 406 kts 149°
2026-04-20 18:12 34.70869 -119.27820 24650 ft 404 kts 150°
2026-04-20 18:13 34.68574 -119.25862 24227 ft 401 kts 150°
2026-04-20 18:13 34.66296 -119.23920 23916 ft 400 kts 150°
2026-04-20 18:13 34.64020 -119.21981 23608 ft 398 kts 150°
2026-04-20 18:13 34.61757 -119.20055 23233 ft 396 kts 150°
2026-04-20 18:14 34.59528 -119.18159 22866 ft 394 kts 150°
2026-04-20 18:14 34.57260 -119.16234 22502 ft 391 kts 150°
2026-04-20 18:14 34.55068 -119.14372 22141 ft 389 kts 150°
2026-04-20 18:14 34.52835 -119.12468 21778 ft 386 kts 150°
2026-04-20 18:15 34.50676 -119.10627 21428 ft 384 kts 150°
2026-04-20 18:15 34.48500 -119.08775 21070 ft 382 kts 150°
2026-04-20 18:15 34.46320 -119.06928 20726 ft 380 kts 150°
2026-04-20 18:15 34.44159 -119.05101 20376 ft 377 kts 150°
2026-04-20 18:16 34.42011 -119.03286 20057 ft 376 kts 150°
2026-04-20 18:16 34.39873 -119.01479 19721 ft 373 kts 150°
2026-04-20 18:16 34.37762 -118.99692 19395 ft 371 kts 150°
2026-04-20 18:16 34.35645 -118.97902 19071 ft 368 kts 150°
2026-04-20 18:17 34.33549 -118.96132 18751 ft 367 kts 149°
2026-04-20 18:17 34.31459 -118.94363 18418 ft 365 kts 149°
2026-04-20 18:17 34.29384 -118.92610 18059 ft 363 kts 149°
2026-04-20 18:17 34.27316 -118.90869 17699 ft 360 kts 149°
2026-04-20 18:18 34.25263 -118.89142 17335 ft 358 kts 149°
2026-04-20 18:18 34.23249 -118.87370 16973 ft 355 kts 147°
2026-04-20 18:18 34.21299 -118.85584 16616 ft 349 kts 147°
2026-04-20 18:18 34.19422 -118.83829 16279 ft 343 kts 146°
2026-04-20 18:19 34.17556 -118.82080 15932 ft 337 kts 146°
2026-04-20 18:19 34.15727 -118.80329 15583 ft 333 kts 144°
2026-04-20 18:19 34.13987 -118.78510 15238 ft 328 kts 142°
2026-04-20 18:19 34.12314 -118.76666 14908 ft 325 kts 141°
2026-04-20 18:20 34.10666 -118.74818 14573 ft 321 kts 141°
2026-04-20 18:20 34.09037 -118.72998 14205 ft 319 kts 141°
2026-04-20 18:20 34.07405 -118.71195 13833 ft 316 kts 141°
2026-04-20 18:20 34.05781 -118.69415 13417 ft 314 kts 141°
2026-04-20 18:21 34.04209 -118.67597 13002 ft 315 kts 133°
2026-04-20 18:21 34.03083 -118.65323 12590 ft 319 kts 114°
2026-04-20 18:21 34.02607 -118.62700 12191 ft 323 kts 100°
2026-04-20 18:21 34.02354 -118.60014 11798 ft 321 kts 99°
2026-04-20 18:22 34.02107 -118.57341 11402 ft 320 kts 99°
2026-04-20 18:22 34.01865 -118.54713 11020 ft 318 kts 99°
2026-04-20 18:22 34.01620 -118.52070 10638 ft 317 kts 99°
2026-04-20 18:22 34.01373 -118.49435 10262 ft 316 kts 99°
2026-04-20 18:23 34.01131 -118.46807 9868 ft 315 kts 97°
2026-04-20 18:23 34.01278 -118.44174 9459 ft 318 kts 81°
2026-04-20 18:23 34.01715 -118.41583 9279 ft 309 kts 81°
2026-04-20 18:23 34.02153 -118.39039 8616 ft 311 kts 81°
2026-04-20 18:24 34.02591 -118.36512 7785 ft 312 kts 80°
2026-04-20 18:24 34.02978 -118.33943 6993 ft 310 kts 84°
2026-04-20 18:24 34.03276 -118.31372 6221 ft 306 kts 86°
2026-04-20 18:24 34.03524 -118.28912 5969 ft 285 kts 85°
2026-04-20 18:25 34.03752 -118.26615 5721 ft 268 kts 86°
2026-04-20 18:25 34.03972 -118.24427 5398 ft 256 kts 85°
2026-04-20 18:25 34.04188 -118.22348 5128 ft 243 kts 84°
2026-04-20 18:25 34.04398 -118.20392 4876 ft 232 kts 83°
2026-04-20 18:26 34.04608 -118.18500 4590 ft 222 kts 84°
2026-04-20 18:26 34.04808 -118.16696 4310 ft 214 kts 83°
2026-04-20 18:26 34.05003 -118.14922 4035 ft 212 kts 83°
2026-04-20 18:26 34.05067 -118.13167 3745 ft 208 kts 103°
2026-04-20 18:27 34.04373 -118.11672 3501 ft 207 kts 139°
2026-04-20 18:27 34.03079 -118.10969 3230 ft 208 kts 172°
2026-04-20 18:27 34.01648 -118.10895 2964 ft 208 kts 180°
2026-04-20 18:27 34.00199 -118.10920 2697 ft 207 kts 181°
2026-04-20 18:28 33.98769 -118.10949 2600 ft 204 kts 182°
2026-04-20 18:28 33.97342 -118.10976 2603 ft 205 kts 181°
2026-04-20 18:28 33.95939 -118.11213 2581 ft 205 kts 206°
2026-04-20 18:28 33.94899 -118.12336 2585 ft 205 kts 242°
2026-04-20 18:29 33.94604 -118.14003 2601 ft 207 kts 274°
2026-04-20 18:29 33.94826 -118.15721 2564 ft 208 kts 279°
2026-04-20 18:29 33.95070 -118.17437 2515 ft 208 kts 279°
2026-04-20 18:29 33.95313 -118.19151 2461 ft 207 kts 278°
2026-04-20 18:30 33.95556 -118.20849 2406 ft 199 kts 278°
2026-04-20 18:30 33.95784 -118.22429 2342 ft 181 kts 278°
2026-04-20 18:30 33.95986 -118.23847 2256 ft 160 kts 278°
2026-04-20 18:30 33.96164 -118.25107 2196 ft 147 kts 278°
2026-04-20 18:31 33.96331 -118.26284 2202 ft 142 kts 278°
2026-04-20 18:31 33.96447 -118.27458 2149 ft 141 kts 264°
2026-04-20 18:31 33.96355 -118.28630 2013 ft 139 kts 262°
2026-04-20 18:31 33.96253 -118.29784 1851 ft 138 kts 262°
2026-04-20 18:32 33.96145 -118.30927 1675 ft 138 kts 262°
2026-04-20 18:32 33.96033 -118.32061 1485 ft 135 kts 261°
2026-04-20 18:32 33.95920 -118.33193 1311 ft 137 kts 262°
2026-04-20 18:32 33.95807 -118.34320 1127 ft 135 kts 263°
2026-04-20 18:33 33.95692 -118.35460 947 ft 137 kts 262°
2026-04-20 18:33 33.95581 -118.36599 738 ft 135 kts 262°
2026-04-20 18:33 33.95471 -118.37708 586 ft 133 kts 261°
2026-04-20 18:33 33.95348 -118.38811 375 ft 131 kts 263°
2026-04-20 18:34 33.95247 -118.39894 201 ft 129 kts 263°
2026-04-20 18:34 33.95135 -118.40941 126 ft 113 kts 263°
2026-04-20 18:34 33.95060 -118.41669 124 ft 62 kts 263°
2026-04-20 18:34 33.94975 -118.41878 123 ft 12 kts 216°
2026-04-20 18:35 33.94971 -118.41883 126 ft 0 kts 220°